Header for Extended Forecast Station List Page

Search by: ID | Name | Date | Parm | Value | Avg | % Avg
Sort by: ID | Name | Date | Parm | Value | Avg | % Avg

Enter search or view all records.

Click on id for station plot
#IDNameDateParmValueAvg% Avg
0ABOM8CLARK FORK-ABOVE MISSOULA07-22-2021DISCHARGE (KAF)32539582
1AFRI1SNAKE-AMERICAN FALLS RESERVOIR07-22-2021INFLOW (KAF)13091239106
2ALFW1PEND OREILLE-ALBENI FALLS DAM07-22-2021INFLOW (KAF)2468345172
3ALPW4SNAKE-NEAR ALPINE07-22-2021DISCHARGE (KAF)1046937112
4ANAW1SNAKE-NEAR ANATONE07-22-2021DISCHARGE (KAF)3719474378
5ANTI1HENRYS FORK-AT ST. ANTHONY07-22-2021DISCHARGE (KAF)27732186
6ARAI1SF BOISE-ANDERSON RANCH DAM07-22-2021INFLOW (KAF)587478
7ARDW1ENTIAT-NEAR ARDENVOIR07-22-2021DISCHARGE (KAF)233567
8BELM8CLARK FORK-BELOW MISSOULA07-22-2021DISCHARGE (KAF)51063580
9BERO3MALHEUR-AGENCY VALLEY DAM07-22-2021INFLOW (KAF)6785
10BFEI1KOOTENAI-AT BONNERS FERRY07-22-2021STAGE (FT)MMM
11BFTI1SNAKE-NEAR BLACKFOOT07-22-2021DISCHARGE (KAF)716578124
12BIGI1BOISE-AT GLENWOOD BRIDGE07-22-2021DISCHARGE (KAF)12314585
13BITM8BITTERROOT-NEAR MISSOULA07-22-2021DISCHARGE (KAF)18423479
14BONM8BLACKFOOT-NEAR BONNER07-22-2021DISCHARGE (KAF)15918188
15BONO3COLUMBIA-BONNEVILLE DAM07-22-2021INFLOW (KAF)231863084475
16BRNI1SNAKE-BROWNLEE DAM07-22-2021INFLOW (KAF)2897313492
17BUDW1BUMPING-BUMPING LAKE DAM07-22-2021INFLOW (KAF)2322103
18BULO3BULLY CREEK-BULLY CREEK DAM07-22-2021INFLOW (KAF)M0M
19CABI1CLARK FORK-CABINET GORGE DAM07-22-2021INFLOW (KAF)2397317376
20CFMM8FLATHEAD-AT COLUMBIA FALLS07-22-2021DISCHARGE (KAF)941123476
21CHDW1CHELAN-LAKE CHELAN DAM07-22-2021INFLOW (KAF)14325157
22CHEI1FALL RIVER-NEAR CHESTER07-22-2021DISCHARGE (KAF)717989
23CHJW1COLUMBIA-CHIEF JOSEPH DAM07-22-2021INFLOW (KAF)151672068373
24CIBW1COLUMBIA-AT INTL BOUNDARY07-22-2021DISCHARGE (KAF)15329MM
25CLFW1NACHES-NEAR CLIFFDEL07-22-2021DISCHARGE (KAF)8685101
26CLUW1CLE ELUM-CLE ELUM LAKE07-22-2021INFLOW (KAF)7878100
27COEI1COEUR D ALENE-COEUR D ALENE LAKE07-22-2021INFLOW (KAF)18423379
28CSDI1NF PAYETTE-CASCADE DAM07-22-2021INFLOW (KAF)616792
29DEDI1DEADWOOD-NEAR LOWMAN07-22-2021INFLOW (KAF)122059
30DLGM8CLARK FORK-AT DEER LODGE07-22-2021DISCHARGE (KAF)294664
31DRMM8CLARK FORK-NR DRUMMOND07-22-2021DISCHARGE (KAF)90MM
32DWRI1NF CLEARWATER-DWORSHAK DAM07-22-2021INFLOW (KAF)25937769
33EASW1YAKIMA-AT EASTON07-22-2021DISCHARGE (KAF)647289
34EMMI1PAYETTE-NEAR EMMETT07-22-2021DISCHARGE (KAF)25640763
35FCFM8NF FLATHEAD-NEAR COLUMBIA FALLS07-22-2021DISCHARGE (KAF)18732358
36GCDW1COLUMBIA-GRAND COULEE DAM07-22-2021INFLOW (KAF)158622141874
37GIBO3UMATILLA-NEAR GIBBON07-22-2021DISCHARGE (KAF)101277
38HALI1BIG WOOD-AT HAILEY07-22-2021DISCHARGE (KAF)295849
39HEII1SNAKE-NEAR HEISE07-22-2021DISCHARGE (KAF)1580160798
40HHWM8SF FLATHEAD-HUNGRY HORSE DAM07-22-2021INFLOW (KAF)18626072
41HODO3HOOD-NEAR TUCKER BRIDGE07-22-2021DISCHARGE (KAF)949895
42HOPI1PEND OREILLE-PEND OREILLE LAKE NR HOPE07-22-2021LAKE ELEVATION (FT)MMM
43HOTI1BRUNEAU-NEAR HOT SPRINGS07-22-2021DISCHARGE (KAF)92240
44HWRI1BIG LOST-AT HOWELL RANCH NEAR CHILLY07-22-2021DISCHARGE (KAF)174042
45IHDW1SNAKE-ICE HARBOR DAM07-22-2021INFLOW (KAF)5166582489
46IPDI1HENRYS FORK-ISLAND PARK DAM07-22-2021INFLOW (KAF)10514573
47JDAO3COLUMBIA-JOHN DAY DAM07-22-2021INFLOW (KAF)222072936476
48JKSW4SNAKE-NEAR JACKSON07-22-2021DISCHARGE (KAF)950786121
49JLKW4SNAKE-JACKSON LAKE AT DAM07-22-2021INFLOW (KAF)11116467
50KADW1KACHESS-KACHESS DAM07-22-2021INFLOW (KAF)2718153
51KEDW1YAKIMA-KEECHELUS LAKE07-22-2021INFLOW (KAF)3828139
52KERM8FLATHEAD-SELI’Š KSANKA QLISPE’ DAM07-22-2021INFLOW (KAF)979146667
53KIOW1YAKIMA-AT KIONA07-22-2021DISCHARGE (KAF)41846790
54LAUW1KETTLE-AT LAURIER07-22-2021DISCHARGE (KAF)8716054
55LEOI1KOOTENAI-AT LEONIA07-22-2021DISCHARGE (KAF)1494229265
56LGDW1SNAKE-LOWER GRANITE DAM07-22-2021INFLOW (KAF)5137586088
57LGSW1SNAKE-LITTLE GOOSE DAM07-22-2021INFLOW (KAF)5154590187
58LLKW1SPOKANE-AT LONGLAKE07-22-2021INFLOW (KAF)43861272
59LMNW1SNAKE-LOWER MONUMENTAL DAM07-22-2021INFLOW (KAF)5166591987
60LUCI1BOISE-LUCKY PEAK DAM07-22-2021INFLOW (KAF)239MM
61LWRI1LITTLE WOOD-LITTLE WOOD DAM07-22-2021INFLOW (KAF)51534
62LYDM8KOOTENAI-LIBBY DAM07-22-2021INFLOW (KAF)1130179063
63MACI1BIG LOST-MACKAY RESERVOIR NEAR MACKAY07-22-2021INFLOW (KAF)242887
64MAGI1BIG WOOD-MAGIC DAM07-22-2021INFLOW (KAF)72924
65MCDW1COLUMBIA-MCNARY DAM07-22-2021INFLOW (KAF)218352888476
66MILI1SNAKE-AT MILNER07-22-2021DISCHARGE (KAF)360151238
67MODO3DESCHUTES-AT MOODY NR BIGGS07-22-2021DISCHARGE (KAF)1079111197
68MONO3NF JOHN DAY-AT MONUMENT07-22-2021DISCHARGE (KAF)243766
69MYKO3MCKAY CREEK-NEAR PILOT ROCK07-22-2021DISCHARGE (KAF)0151
70NACW1NACHES-NEAR NACHES07-22-2021DISCHARGE (KAF)10412186
71NOXM8CLARK FORK-NOXON RAPIDS DAM07-22-2021INFLOW (KAF)2175299073
72ORFI1CLEARWATER-AT OROFINO07-22-2021DISCHARGE (KAF)37952472
73OWYO3OWYHEE-OWYHEE DAM07-22-2021INFLOW (KAF)325162
74PARI1BOISE-NEAR PARMA07-22-2021DISCHARGE (KAF)18722185
75PARW1YAKIMA-NEAR PARKER07-22-2021DISCHARGE (KAF)15416692
76PATW1METHOW-NEAR PATEROS07-22-2021DISCHARGE (KAF)9813672
77PDTO3UMATILLA-AT PENDLETON07-22-2021DISCHARGE (KAF)121489
78PESW1WENATCHEE-AT PESHASTIN07-22-2021DISCHARGE (KAF)21229572
79PIHI1PORTNEUF-AT POCATELLO07-22-2021DISCHARGE (KAF)133143
80PITW1KLICKITAT-NEAR PITT07-22-2021DISCHARGE (KAF)14919377
81PLDI1SF SNAKE-PALISADES DAM07-22-2021INFLOW (KAF)1274129299
82PRTI1PRIEST-NEAR PRIEST RIVER07-22-2021DISCHARGE (KAF)13116678
83PRWW1COLUMBIA-PRIEST RAPIDS DAM07-22-2021INFLOW (KAF)160952219173
84RCCM8ROCK CREEK-NEAR CLINTON07-22-2021DISCHARGE (KAF)636991
85REXI1HENRYS FORK-AT REXBURG07-22-2021DISCHARGE (KAF)31937984
86RIDI1WILLOW CREEK-RIRIE DAM07-22-2021INFLOW (KAF)2636
87RILW1TIETON-RIMROCK LAKE NEAR RIMROCK07-22-2021INFLOW (KAF)7067105
88RRHW1COLUMBIA-ROCKY REACH DAM07-22-2021INFLOW (KAF)157722149173
89SATI1ST MARIES-NEAR SANTA07-22-2021DISCHARGE (KAF)131876
90SERO3JOHN DAY-AT SERVICE CK07-22-2021DISCHARGE (KAF)356255
91SHYI1SNAKE-NEAR SHELLEY07-22-2021DISCHARGE (KAF)1079937115
92SIFI1SNAKE-AB EAGLE ROCK NR IDAHO FALLS07-22-2021DISCHARGE (KAF)11881182100
93SJMI1ST JOE-AT ST MARIES07-22-2021STAGE (FT)MMM
94SNAI1SNAKE-AT BLACKFOOT07-22-2021DISCHARGE (KAF)709583122
95SPDI1CLEARWATER-AT SPALDING07-22-2021DISCHARGE (KAF)14231052135
96SPOW1SPOKANE-AT SPOKANE07-22-2021DISCHARGE (KAF)288MM
97SRGM8CLARK FORK-AT ST REGIS07-22-2021DISCHARGE (KAF)64083277
98STRM8ST. REGIS-NEAR ST. REGIS07-22-2021DISCHARGE (KAF)253180
99SWAI1SNAKE-BELOW SWAN FALLS07-22-2021DISCHARGE (KAF)1980210394
100TCHW1WALLA WALLA-NEAR TOUCHET07-22-2021DISCHARGE (KAF)61155
101TDAO3COLUMBIA-THE DALLES DAM07-22-2021INFLOW (KAF)227962976577
102TEAI1TETON-NEAR ST. ANTHONY07-22-2021DISCHARGE (KAF)12816677
103TNAW1TEANAWAY-BELOW FORKS07-22-2021DISCHARGE (KAF)81087
104TONW1OKANOGAN-NEAR TONASKET07-22-2021DISCHARGE (KAF)16831653
105TRYO3GRANDE RONDE-TROY07-22-2021DISCHARGE (KAF)10620552
106UMAO3UMATILLA-NEAR UMATILLA07-22-2021DISCHARGE (KAF)4212334
107UMTW1YAKIMA-AT UMTANUM07-22-2021DISCHARGE (KAF)537529101
108UNDW1WHITE SALMON-NEAR UNDERWOOD07-22-2021DISCHARGE (KAF)13115982
109WANW1COLUMBIA-WANAPUM DAM07-22-2021INFLOW (KAF)160872174574
110WEII1SNAKE-AT WEISER07-22-2021DISCHARGE (KAF)2775307990
111WELW1COLUMBIA-WELLS DAM07-22-2021INFLOW (KAF)154532095074
112WGCM8MF FLATHEAD-NEAR WEST GLACIER07-22-2021DISCHARGE (KAF)18126967
113WHBI1SALMON-AT WHITEBIRD07-22-2021DISCHARGE (KAF)867126968
114WRMO3MALHEUR-WARM SPRINGS DAM07-22-2021INFLOW (KAF)54109
115WSRI1WEISER-NEAR WEISER07-22-2021DISCHARGE (KAF)445185